GW7108 Weather Reports


time (UTC)temp
F
wind
direction
speed
knots
gust
knots
rain 1hr
in
rain 24hr
in
rain mn
in
humidity
%
barometer
mb
20260503203003 61 355 4.3 7.8 0.00 0.00 0.00 58 1028.4
20260503202503 61 1 4.3 8.7 0.00 0.00 0.00 57 1028.5
20260503202003 61 359 4.3 8.7 0.00 0.00 0.00 57 1028.2
20260503201503 61 359 4.3 8.7 0.00 0.00 0.00 56 1028.3
20260503201003 61 9 4.3 11.3 0.00 0.00 0.00 56 1028.1
20260503200503 61 8 4.3 11.3 0.00 0.00 0.00 56 1028.2
20260503200003 61 4 4.3 8.7 0.00 0.00 0.00 56 1028.0
20260503195503 61 8 4.3 7.8 0.00 0.00 0.00 55 1028.0
20260503195024 62 10 4.3 10.4 0.00 0.00 0.00 55 1028.0
20260503194503 62 12 4.3 10.4 0.00 0.00 0.00 55 1027.6
20260503194024 62 17 4.3 9.6 0.00 0.00 0.00 55 1027.6
20260503193503 62 16 6.1 11.3 0.00 0.00 0.00 55 1027.6
20260503193003 62 15 7.0 12.2 0.00 0.00 0.00 54 1027.7
20260503192503 62 17 7.0 12.2 0.00 0.00 0.00 54 1027.4
20260503192003 63 21 6.1 11.3 0.00 0.00 0.00 54 1027.6
20260503191524 63 22 6.1 12.2 0.00 0.00 0.00 54 1027.3
20260503191003 63 18 7.8 13.9 0.00 0.00 0.00 54 1027.6
20260503190524 63 15 7.0 13.9 0.00 0.00 0.00 54 1027.7
20260503190003 64 17 6.1 13.9 0.00 0.00 0.00 54 1027.6
20260503185503 64 19 5.2 9.6 0.00 0.00 0.00 54 1027.3
20260503185024 64 20 6.1 12.2 0.00 0.00 0.00 53 1027.4
20260503184503 64 16 6.1 13.9 0.00 0.00 0.00 52 1027.3
20260503184003 64 13 7.0 13.9 0.00 0.00 0.00 52 1027.0
20260503183503 64 17 7.0 13.9 0.00 0.00 0.00 52 1027.0
20260503183003 65 17 6.1 10.4 0.00 0.00 0.00 54 1027.1
20260503182503 65 10 5.2 8.7 0.00 0.00 0.00 55 1027.0
20260503182024 65 7 5.2 10.4 0.00 0.00 0.00 55 1026.8
20260503181504 65 10 6.1 10.4 0.00 0.00 0.00 54 1027.2
20260503181003 65 19 6.1 13.9 0.00 0.00 0.00 54 1027.1
20260503180503 65 23 7.0 13.9 0.00 0.00 0.00 54 1027.0
20260503180003 65 22 7.0 13.0 0.00 0.00 0.00 54 1027.3
20260503175503 66 9 7.0 16.5 0.00 0.00 0.00 53 1027.2
20260503175024 67 346 7.0 16.5 0.00 0.00 0.00 49 1027.2
20260503174524 67 328 7.0 16.5 0.00 0.00 0.00 42 1027.1
20260503174003 68 323 7.0 16.5 0.00 0.00 0.00 43 1027.0
20260503173524 68 321 7.8 15.6 0.00 0.00 0.00 43 1027.0
20260503173003 67 323 7.8 16.5 0.00 0.00 0.00 43 1027.0
20260503172503 68 333 7.0 16.5 0.00 0.00 0.00 43 1027.0
20260503172024 67 337 8.7 16.5 0.00 0.00 0.00 42 1027.0
20260503171503 68 336 8.7 16.5 0.00 0.00 0.00 42 1026.8
20260503171003 68 337 7.8 15.6 0.00 0.00 0.00 42 1026.9
20260503170503 69 330 7.8 16.5 0.00 0.00 0.00 41 1027.0
20260503151003 68 353 9.6 18.2 0.00 0.06 0.00 54 1027.0
20260503150503 70 315 10.4 22.6 0.00 0.06 0.00 43 1027.1
20260503131003 65 355 6.1 11.3 0.00 0.06 0.00 63 1028.4
20260503130503 66 360 6.1 13.0 0.00 0.06 0.00 63 1028.1
20260503110503 65 21 7.8 13.0 0.00 0.06 0.00 63 1029.1
20260503090504 62 28 4.3 7.8 0.00 0.06 0.00 74 1029.5
20260503081524 61 16 6.1 10.4 0.00 0.06 0.00 75 1029.8
20260503081003 61 17 5.2 10.4 0.00 0.06 0.00 76 1029.8
20260503080503 61 16 5.2 10.4 0.00 0.06 0.00 77 1029.5
20260503072503 59 25 3.5 7.8 0.00 0.06 0.00 77 1029.5
20260503072003 59 60 1.7 5.2 0.00 0.06 0.00 78 1029.4
20260503071503 59 68 1.7 3.5 0.00 0.06 0.00 78 1029.3
20260503071003 58 8 1.7 4.3 0.00 0.06 0.00 78 1029.3
20260503070504 59 349 1.7 4.3 0.00 0.06 0.00 78 1029.5
20260503055003 55 16 2.6 6.1 0.00 0.06 0.00 87 1029.5
20260503054503 55 22 3.5 8.7 0.00 0.06 0.00 86 1029.5
20260503054003 55 15 4.3 8.7 0.00 0.06 0.00 87 1029.0
20260503053524 55 1 3.5 7.0 0.00 0.06 0.00 87 1029.3
20260503053003 55 6 4.3 8.7 0.00 0.06 0.00 87 1029.3
20260503052524 56 18 4.3 9.6 0.00 0.06 0.00 86 1029.3
20260503052003 56 18 6.1 12.2 0.00 0.06 0.00 87 1029.1
20260503051503 56 15 6.1 12.2 0.00 0.06 0.00 87 1029.1
20260503051003 56 17 6.1 12.2 0.00 0.06 0.00 87 1029.0
20260503050504 56 19 6.1 12.2 0.00 0.06 0.00 86 1029.6
20260503050003 57 360 6.1 15.6 0.00 0.06 0.00 84 1029.3
20260503045503 58 323 6.1 15.6 0.00 0.06 0.00 80 1029.6
20260503045003 58 304 5.2 10.4 0.00 0.06 0.00 79 1029.4
20260503044503 58 306 4.3 10.4 0.00 0.06 0.00 79 1029.3
20260503044003 58 321 3.5 7.0 0.00 0.06 0.00 79 1029.3
20260503043503 58 318 2.6 7.8 0.00 0.06 0.00 80 1029.3
20260503043024 58 292 2.6 7.8 0.00 0.06 0.00 80 1029.4
20260503042504 58 277 4.3 11.3 0.00 0.06 0.00 79 1028.9
20260503042025 58 280 6.1 11.3 0.00 0.06 0.00 79 1029.0
20260503041503 58 282 6.1 12.2 0.00 0.06 0.00 80 1029.1
20260503041003 57 270 4.3 12.2 0.00 0.06 0.00 82 1029.0
20260503040503 57 232 2.6 5.2 0.00 0.06 0.00 81 1028.9
20260503040003 57 219 3.5 6.1 0.00 0.06 0.00 82 1028.9
20260503035503 57 244 2.6 6.1 0.00 0.06 0.00 82 1029.1
20260503035003 57 261 2.6 6.1 0.00 0.06 0.00 82 1029.0
20260503034503 57 255 3.5 7.8 0.00 0.06 0.00 82 1029.3
20260503034024 57 269 3.5 7.8 0.00 0.06 0.00 82 1029.1
20260503033503 57 260 2.6 5.2 0.00 0.06 0.00 82 1028.9
20260503033003 57 241 2.6 5.2 0.00 0.06 0.00 82 1029.4
20260503032503 57 250 2.6 5.2 0.00 0.06 0.00 83 1029.0
20260503032003 57 234 3.5 7.0 0.00 0.06 0.00 83 1029.1
20260503031503 57 227 3.5 7.0 0.00 0.06 0.00 83 1029.4
20260503031003 57 243 2.6 5.2 0.00 0.06 0.00 82 1029.3
20260503030503 57 234 2.6 6.1 0.00 0.06 0.00 81 1029.4
20260503030003 57 220 3.5 6.1 0.00 0.06 0.00 81 1029.3
20260503025503 58 217 1.7 5.2 0.00 0.06 0.00 79 1029.3
20260503025003 58 198 0.9 3.5 0.00 0.06 0.00 78 1029.3
20260503024524 58 180 0.9 2.6 0.00 0.06 0.00 78 1029.6
20260503024003 58 161 0.9 2.6 0.00 0.06 0.00 78 1029.6
20260503023503 58 127 0.0 1.7 0.00 0.06 0.00 78 1029.6
20260503023003 58 318 0.9 1.7 0.00 0.06 0.00 78 1029.5
20260503022503 58 314 0.9 2.6 0.00 0.06 0.00 78 1029.5
20260503022003 57 300 0.0 2.6 0.00 0.06 0.00 79 1029.7
20260503021503 57 241 0.0 2.6 0.00 0.06 0.00 80 1029.5
20260503021003 57 205 0.9 2.6 0.00 0.06 0.00 79 1029.8
20260503020503 58 182 1.7 2.6 0.00 0.06 0.00 79 1029.8
20260503020003 58 167 0.9 1.7 0.00 0.06 0.00 78 1029.7
20260503015503 58 284 0.9 3.5 0.00 0.06 0.00 77 1029.7
20260503015003 58 292 1.7 3.5 0.00 0.06 0.00 76 1029.7
20260503014524 58 299 1.7 3.5 0.00 0.06 0.00 77 1029.7
20260503014003 58 102 0.9 2.6 0.00 0.06 0.00 78 1029.8
20260503013503 58 85 0.9 3.5 0.00 0.06 0.00 78 1029.9
20260503013003 58 33 0.9 3.5 0.00 0.06 0.00 78 1030.0
20260503012503 58 3 0.9 1.7 0.00 0.06 0.00 78 1030.0
20260503012003 58 14 0.9 3.5 0.00 0.06 0.00 77 1030.1
20260503011503 59 8 1.7 3.5 0.00 0.06 0.00 77 1030.1
20260503011003 59 349 1.7 3.5 0.00 0.06 0.00 77 1030.0
20260503010503 59 336 1.7 3.5 0.00 0.06 0.00 77 1030.2
20260503010003 59 336 1.7 3.5 0.00 0.06 0.00 77 1029.9
20260503005503 59 333 1.7 3.5 0.00 0.06 0.00 77 1030.4
20260503005024 59 333 1.7 3.5 0.00 0.06 0.00 77 1030.1
20260503004503 59 340 1.7 4.3 0.00 0.06 0.00 78 1030.3
20260503004003 59 354 0.9 4.3 0.00 0.06 0.00 78 1030.3
20260503003503 59 344 0.0 1.7 0.00 0.06 0.00 80 1030.2
20260503003003 59 205 0.0 1.7 0.00 0.06 0.00 80 1030.6
20260503002503 59 184 0.0 1.7 0.00 0.06 0.00 79 1030.4
20260503002003 59 204 0.0 1.7 0.00 0.06 0.00 79 1030.2
20260503001524 60 231 0.0 1.7 0.00 0.06 0.00 79 1030.3
20260503001003 60 289 0.0 1.7 0.00 0.06 0.00 79 1030.5
20260503000524 60 360 0.0 1.7 0.00 0.06 0.00 79 1030.4
20260503000003 60 19 0.0 1.7 0.00 0.06 0.00 79 1030.4
20260502235524 60 209 0.0 1.7 0.00 0.06 0.00 80 1030.4
20260502235003 60 257 0.9 2.6 0.00 0.06 0.00 80 1030.6
20260502234503 60 335 1.7 2.6 0.00 0.06 0.00 80 1030.6
20260502234025 60 339 1.7 3.5 0.00 0.06 0.00 80 1030.7
20260502233503 60 313 2.6 3.5 0.00 0.06 0.00 80 1031.0
20260502233003 60 302 2.6 3.5 0.00 0.06 0.00 80 1030.8
20260502232524 60 293 2.6 4.3 0.00 0.06 0.00 80 1031.1
20260502232003 60 287 2.6 4.3 0.00 0.06 0.00 80 1031.0
20260502231503 60 290 2.6 4.3 0.00 0.06 0.00 80 1031.1
20260502231003 60 292 2.6 3.5 0.00 0.06 0.00 79 1030.8
20260502230503 60 301 1.7 3.5 0.00 0.06 0.00 79 1030.7
20260502230003 60 337 1.7 3.5 0.00 0.06 0.00 78 1030.8
20260502225524 60 342 2.6 5.2 0.00 0.06 0.00 77 1030.8
20260502225024 60 326 2.6 5.2 0.00 0.06 0.00 77 1030.7
20260502224503 60 314 3.5 5.2 0.00 0.06 0.00 77 1031.1
20260502224003 60 308 3.5 7.0 0.00 0.06 0.00 77 1031.0
20260502223503 60 308 3.5 7.0 0.00 0.06 0.00 77 1030.7
20260502223003 60 308 3.5 7.0 0.00 0.06 0.00 77 1030.8
20260502222503 60 308 4.3 8.7 0.00 0.06 0.00 77 1030.8
20260502222003 61 301 5.2 10.4 0.00 0.06 0.00 76 1030.6
20260502221503 60 297 5.2 10.4 0.00 0.06 0.00 76 1030.8
20260502221003 60 294 4.3 9.6 0.00 0.06 0.00 77 1030.8
20260502220025 60 283 5.2 9.6 0.00 0.06 0.00 78 1031.1
20260502215503 60 281 5.2 8.7 0.00 0.06 0.06 79 1031.1
20260502215003 60 290 5.2 9.6 0.00 0.06 0.06 78 1031.2
20260502214503 60 292 5.2 9.6 0.00 0.06 0.06 78 1031.0
20260502214024 60 294 5.2 9.6 0.00 0.06 0.06 78 1031.3
20260502213503 60 297 5.2 8.7 0.00 0.06 0.06 79 1031.2
20260502213024 60 299 4.3 8.7 0.00 0.06 0.06 79 1031.0
20260502212524 60 296 5.2 10.4 0.00 0.06 0.06 79 1031.1
20260502212004 60 294 6.1 10.4 0.00 0.06 0.06 79 1031.2
20260502211503 60 293 5.2 11.3 0.00 0.06 0.06 79 1031.2
20260502211003 61 292 5.2 11.3 0.00 0.06 0.06 79 1031.2
20260502210503 60 290 6.1 10.4 0.00 0.06 0.06 79 1031.3
20260502210003 60 286 5.2 10.4 0.00 0.06 0.06 80 1031.3
20260502205503 60 280 5.2 9.6 0.00 0.06 0.06 80 1031.1
20260502205003 61 281 5.2 9.6 0.00 0.06 0.06 80 1031.2
20260502204503 61 289 6.1 10.4 0.00 0.06 0.06 78 1031.1
20260502204003 61 293 6.1 10.4 0.00 0.06 0.06 78 1031.1
20260502203503 62 290 7.0 14.8 0.00 0.06 0.06 77 1031.0